Weather History for Jacksonville Craig, FL

Change the Weather History Date:

Sunday, September 18, 2011

  Actual Average Record
Temperature  
Mean Temperature 76 °F -  
Max Temperature 80 °F 83 °F 91 °F (2005)
Min Temperature 71 °F 69 °F 64 °F (2003)
Cooling Degree Days 10    
Growing Degree Days 26 (Base 50)    
Moisture  
Dew Point 69 °F    
Average Humidity 79    
Maximum Humidity 87    
Minimum Humidity 69    
Precipitation  
Precipitation 0.00 in - - ()
Sea Level Pressure  
Sea Level Pressure 30.13 in    
Wind  
Wind Speed 10 mph (NNE)    
Max Wind Speed 17 mph    
Max Gust Speed 25 mph    
Visibility 10 miles    
Events      
Averages and records for this station are not official NWS values.
T = Trace of Precipitation, MM = Missing Value Source: NWS Daily Summary

Daily Weather History Graph

Daily Weather History Graph

Search for Another Location

Airport:

Trip Planner

Search our weather history database for the weather conditions in past years. The results will help you decide how hot, cold, wet, or windy it might be!

Date:

Astronomy

Sep. 18, 2011 Rise Set
Actual Time 7:12 AM EDT 7:28 PM EDT
Civil Twilight 6:47 AM EDT 7:52 PM EDT
Nautical Twilight 6:19 AM EDT 8:20 PM EDT
Astronomical Twilight 5:51 AM EDT 8:48 PM EDT
Moon 11:10 PM EDT (9/18) 12:40 PM EDT (9/18)
Length of Visible Light 13h 04m
Length of Day
12h 16m
Waning Gibbous, 68% of the Moon is Illuminated
Sep 18
Waning Gibbous
Sep 20
Last Quarter
Sep 27
New
Oct 3
First Quarter
Oct 11
Full

Hourly Weather History & Observations

Time (EDT) Temp. Heat Index Dew Point Humidity Pressure Visibility Wind Dir Wind Speed Gust Speed Precip Events Conditions
12:53 AM 77.0 °F - 71.1 °F 82% 30.13 in 10.0 mi NNE 8.1 mph - N/A   Overcast
1:53 AM 77.0 °F - 70.0 °F 79% 30.12 in 10.0 mi NE 5.8 mph - N/A   Mostly Cloudy
2:53 AM 77.0 °F - 71.1 °F 82% 30.10 in 10.0 mi NNE 6.9 mph - N/A   Overcast
3:29 AM 75.2 °F - 69.8 °F 83% 30.10 in 10.0 mi NE 6.9 mph - N/A   Mostly Cloudy
3:51 AM 75.2 °F - 69.8 °F 83% 30.10 in 10.0 mi NNE 6.9 mph - N/A   Mostly Cloudy
3:53 AM 75.9 °F - 70.0 °F 82% 30.10 in 10.0 mi NNE 8.1 mph - N/A   Mostly Cloudy
4:05 AM 75.2 °F - 69.8 °F 83% 30.10 in 10.0 mi NE 5.8 mph - N/A   Scattered Clouds
5:53 AM 75.9 °F - 71.1 °F 85% 30.11 in 10.0 mi NNE 11.5 mph 17.3 mph N/A   Overcast
6:06 AM 75.2 °F - 69.8 °F 83% 30.12 in 10.0 mi NNE 11.5 mph 20.7 mph N/A   Overcast
6:27 AM 75.2 °F - 69.8 °F 83% 30.12 in 10.0 mi NNE 11.5 mph 18.4 mph N/A   Overcast
6:53 AM 73.0 °F - 69.1 °F 87% 30.13 in 10.0 mi North 9.2 mph - N/A   Overcast
8:04 AM 71.6 °F - 66.2 °F 83% 30.16 in 8.0 mi North 11.5 mph 20.7 mph N/A   Overcast
8:53 AM 71.1 °F - 66.9 °F 87% 30.17 in 9.0 mi North 9.2 mph - N/A   Overcast
9:53 AM 73.0 °F - 66.9 °F 81% 30.18 in 10.0 mi NNE 11.5 mph - N/A   Overcast
10:53 AM 75.0 °F - 66.9 °F 76% 30.17 in 10.0 mi North 15.0 mph 19.6 mph N/A   Overcast
11:53 AM 75.9 °F - 68.0 °F 76% 30.18 in 10.0 mi NNE 11.5 mph 20.7 mph N/A   Overcast
12:09 PM 77.0 °F - 68.0 °F 74% 30.18 in 10.0 mi NNE 11.5 mph 23.0 mph N/A   Overcast
12:38 PM 77.0 °F - 69.8 °F 78% 30.18 in 10.0 mi NNE 11.5 mph 20.7 mph N/A   Overcast
12:53 PM 77.0 °F - 69.1 °F 76% 30.18 in 10.0 mi NNE 13.8 mph 20.7 mph N/A   Overcast
1:53 PM 79.0 °F - 69.1 °F 72% 30.16 in 10.0 mi NNE 17.3 mph 25.3 mph N/A   Overcast
3:53 PM 78.1 °F - 68.0 °F 71% 30.12 in 10.0 mi NNE 12.7 mph 21.9 mph N/A   Overcast
4:53 PM 80.1 °F 82.9 °F 69.1 °F 69% 30.11 in 10.0 mi NNE 13.8 mph 24.2 mph N/A   Overcast
5:11 PM 77.0 °F - 69.8 °F 78% 30.11 in 10.0 mi NE 13.8 mph 21.9 mph N/A   Overcast
5:53 PM 75.9 °F - 68.0 °F 76% 30.11 in 10.0 mi NNE 15.0 mph 24.2 mph N/A   Overcast
6:53 PM 75.0 °F - 68.0 °F 79% 30.11 in 10.0 mi NNE 9.2 mph - N/A   Overcast
7:53 PM 75.0 °F - 68.0 °F 79% 30.11 in 10.0 mi NNE 13.8 mph - N/A   Overcast
8:34 PM 75.2 °F - 68.0 °F 78% 30.11 in 10.0 mi NNE 9.2 mph - N/A   Overcast
8:53 PM 75.9 °F - 68.0 °F 76% 30.12 in 10.0 mi NNE 11.5 mph - N/A   Overcast
9:03 PM 75.2 °F - 68.0 °F 78% 30.12 in 10.0 mi NNE 10.4 mph - N/A   Overcast
9:53 PM 75.9 °F - 68.0 °F 76% 30.13 in 10.0 mi NNE 9.2 mph - N/A   Overcast
11:53 PM 77.0 °F - 69.1 °F 76% 30.11 in 10.0 mi NNE 9.2 mph - N/A   Overcast